Time,TemperatureF,DewpointF,PressureIn,WindDirection,WindDirectionDegrees,WindSpeedMPH,WindSpeedGustMPH,Humidity,HourlyPrecipIn,Conditions,Clouds,dailyrainin,SolarRadiationWatts/m^2,SoftwareType,DateUTC
2013-08-19 00:00:00,68.2,64.2,28.78,SE,146,0.0,0.0,87,0.00,FEW,,0.00,0.0,WeatherDisplay:10.37,2013-08-19 05:00:00,
2013-08-19 00:10:00,68.0,64.3,28.78,SE,146,0.0,0.0,88,0.00,FEW,,0.00,0.0,WeatherDisplay:10.37,2013-08-19 05:10:00,
2013-08-19 00:20:00,67.7,64.0,28.79,SE,146,0.0,0.0,88,0.00,FEW,,0.00,0.0,WeatherDisplay:10.37,2013-08-19 05:20:00,
2013-08-19 00:30:00,67.3,63.7,28.78,SE,146,0.0,0.0,88,0.00,FEW,,0.00,0.0,WeatherDisplay:10.37,2013-08-19 05:30:00,
2013-08-19 00:40:00,67.0,63.6,28.79,SE,146,0.0,0.0,89,0.00,FEW,,0.00,0.0,WeatherDisplay:10.37,2013-08-19 05:40:00,
2013-08-19 00:50:00,66.6,63.6,28.79,SE,146,0.0,0.0,90,0.00,FEW,,0.00,0.0,WeatherDisplay:10.37,2013-08-19 05:50:00,
2013-08-19 01:00:00,66.2,63.2,28.79,SE,146,0.0,1.0,90,0.00,FEW,,0.00,0.0,WeatherDisplay:10.37,2013-08-19 06:00:00,
2013-08-19 01:10:00,66.0,63.3,28.78,SE,146,0.0,0.0,91,0.00,FEW,,0.00,0.0,WeatherDisplay:10.37,2013-08-19 06:10:00,
2013-08-19 01:20:00,65.7,63.0,28.78,SE,146,0.0,0.0,91,0.00,FEW,,0.00,0.0,WeatherDisplay:10.37,2013-08-19 06:20:00,
2013-08-19 01:30:00,65.2,62.8,28.78,SE,146,0.0,1.0,92,0.00,FEW,,0.00,0.0,WeatherDisplay:10.37,2013-08-19 06:30:00,
2013-08-19 01:40:00,65.1,63.0,28.78,SE,146,0.0,1.0,93,0.00,FEW,,0.00,0.0,WeatherDisplay:10.37,2013-08-19 06:40:00,
2013-08-19 01:50:00,64.9,62.8,28.78,SE,146,0.0,0.0,93,0.00,FEW,,0.00,0.0,WeatherDisplay:10.37,2013-08-19 06:50:00,
2013-08-19 02:00:00,64.7,62.6,28.78,SE,146,0.0,0.0,93,0.00,FEW,,0.00,0.0,WeatherDisplay:10.37,2013-08-19 07:00:00,
2013-08-19 02:10:00,64.3,62.2,28.78,SE,146,0.0,0.0,93,0.00,FEW,,0.00,0.0,WeatherDisplay:10.37,2013-08-19 07:10:00,
2013-08-19 02:20:00,63.9,61.8,28.78,SE,146,0.0,0.0,93,0.00,FEW,,0.00,0.0,WeatherDisplay:10.37,2013-08-19 07:20:00,
2013-08-19 02:30:00,63.5,61.7,28.77,SE,146,0.0,0.0,94,0.00,FEW,,0.00,0.0,WeatherDisplay:10.37,2013-08-19 07:30:00,
2013-08-19 02:40:00,63.2,61.4,28.78,SE,146,0.0,0.0,94,0.00,FEW,,0.00,0.0,WeatherDisplay:10.37,2013-08-19 07:40:00,
2013-08-19 02:50:00,63.0,61.5,28.77,SE,146,0.0,0.0,95,0.00,FEW,,0.00,0.0,WeatherDisplay:10.37,2013-08-19 07:50:00,
2013-08-19 03:00:00,62.8,61.3,28.77,SE,146,0.0,0.0,95,0.00,FEW,,0.00,0.0,WeatherDisplay:10.37,2013-08-19 08:00:00,
2013-08-19 03:10:00,62.7,61.5,28.77,SE,146,0.0,0.0,96,0.00,FEW,,0.00,0.0,WeatherDisplay:10.37,2013-08-19 08:10:00,
2013-08-19 03:20:00,62.8,61.6,28.77,SE,146,0.0,0.0,96,0.00,FEW,,0.00,0.0,WeatherDisplay:10.37,2013-08-19 08:20:00,
2013-08-19 03:30:00,62.8,61.6,28.77,SE,146,0.0,0.0,96,0.00,FEW,,0.00,0.0,WeatherDisplay:10.37,2013-08-19 08:30:00,
2013-08-19 03:40:00,62.9,61.7,28.77,SE,146,0.0,0.0,96,0.00,FEW,,0.00,0.0,WeatherDisplay:10.37,2013-08-19 08:40:00,
2013-08-19 03:50:00,62.5,61.4,28.77,SE,146,0.0,0.0,96,0.00,FEW,,0.00,0.0,WeatherDisplay:10.37,2013-08-19 08:50:00,
2013-08-19 04:00:00,62.3,61.1,28.77,SE,146,0.0,0.0,96,0.00,FEW,,0.00,0.0,WeatherDisplay:10.37,2013-08-19 09:00:00,
2013-08-19 04:10:00,62.0,60.9,28.77,SE,146,0.0,0.0,96,0.00,FEW,,0.00,0.0,WeatherDisplay:10.37,2013-08-19 09:10:00,
2013-08-19 04:20:00,61.5,60.3,28.76,SE,146,0.0,0.0,96,0.00,FEW,,0.00,0.0,WeatherDisplay:10.37,2013-08-19 09:20:00,
2013-08-19 04:30:00,61.1,60.0,28.76,SE,146,0.0,0.0,96,0.00,FEW,,0.00,0.0,WeatherDisplay:10.37,2013-08-19 09:30:00,
2013-08-19 04:40:00,61.0,59.9,28.76,SE,146,0.0,0.0,96,0.00,FEW,,0.00,0.0,WeatherDisplay:10.37,2013-08-19 09:40:00,
2013-08-19 04:50:00,60.8,59.7,28.76,SE,146,0.0,0.0,96,0.00,FEW,,0.00,0.0,WeatherDisplay:10.37,2013-08-19 09:50:00,
2013-08-19 05:00:00,60.7,59.8,28.76,SE,146,0.0,0.0,97,0.00,FEW,,0.00,0.0,WeatherDisplay:10.37,2013-08-19 10:00:00,
2013-08-19 05:10:00,60.6,59.7,28.76,SE,146,0.0,0.0,97,0.00,FEW,,0.00,0.0,WeatherDisplay:10.37,2013-08-19 10:10:00,
2013-08-19 05:20:00,60.4,59.6,28.77,SE,146,0.0,0.0,97,0.00,FEW,,0.00,0.0,WeatherDisplay:10.37,2013-08-19 10:20:00,
2013-08-19 05:30:00,60.3,59.4,28.76,SE,146,0.0,0.0,97,0.00,FEW,,0.00,0.0,WeatherDisplay:10.37,2013-08-19 10:30:00,
2013-08-19 05:40:00,60.2,59.3,28.76,SE,146,0.0,0.0,97,0.00,FEW,,0.00,0.0,WeatherDisplay:10.37,2013-08-19 10:40:00,
2013-08-19 05:50:00,60.3,59.4,28.76,SE,146,0.0,0.0,97,0.00,FEW,,0.00,0.0,WeatherDisplay:10.37,2013-08-19 10:50:00,
2013-08-19 06:00:00,60.5,59.9,28.77,SE,146,0.0,0.0,98,0.00,FEW,,0.00,0.0,WeatherDisplay:10.37,2013-08-19 11:00:00,
2013-08-19 06:10:00,60.8,60.2,28.77,SE,146,0.0,0.0,98,0.00,FEW,,0.00,0.0,WeatherDisplay:10.37,2013-08-19 11:10:00,
2013-08-19 06:20:00,60.4,59.5,28.77,SE,146,0.0,0.0,97,0.00,FEW,,0.00,0.0,WeatherDisplay:10.37,2013-08-19 11:20:00,
2013-08-19 06:30:00,60.2,59.3,28.77,SE,146,0.0,0.0,97,0.00,FEW,,0.00,0.0,WeatherDisplay:10.37,2013-08-19 11:30:00,
2013-08-19 06:40:00,60.0,59.1,28.77,SE,146,0.0,0.0,97,0.00,FEW,,0.00,0.0,WeatherDisplay:10.37,2013-08-19 11:40:00,
2013-08-19 06:50:00,59.7,58.8,28.78,SE,146,0.0,0.0,97,0.00,FEW,,0.00,0.0,WeatherDisplay:10.37,2013-08-19 11:50:00,
2013-08-19 07:00:00,59.8,59.2,28.78,SE,146,0.0,0.0,98,0.00,FEW,,0.00,0.0,WeatherDisplay:10.37,2013-08-19 12:00:00,
2013-08-19 07:10:00,60.5,59.9,28.78,SSW,207,0.0,1.0,98,0.00,FEW,,0.00,0.0,WeatherDisplay:10.37,2013-08-19 12:10:00,
2013-08-19 07:20:00,61.1,60.8,28.78,West,268,0.0,0.0,99,0.00,FEW,,0.00,0.0,WeatherDisplay:10.37,2013-08-19 12:20:00,
2013-08-19 07:30:00,61.5,61.2,28.78,West,268,0.0,0.0,99,0.00,FEW,,0.00,0.0,WeatherDisplay:10.37,2013-08-19 12:30:00,
2013-08-19 07:40:00,62.4,62.1,28.78,West,268,0.0,0.0,99,0.00,FEW,,0.00,0.0,WeatherDisplay:10.37,2013-08-19 12:40:00,
2013-08-19 07:50:00,63.4,63.1,28.79,West,268,0.0,0.0,99,0.00,FEW,,0.00,0.0,WeatherDisplay:10.37,2013-08-19 12:50:00,
2013-08-19 08:00:00,64.7,64.4,28.79,West,268,0.0,0.0,99,0.00,FEW,,0.00,0.0,WeatherDisplay:10.37,2013-08-19 13:00:00,
2013-08-19 08:10:00,66.1,65.8,28.79,West,268,0.0,1.0,99,0.00,FEW,,0.00,0.0,WeatherDisplay:10.37,2013-08-19 13:10:00,
2013-08-19 08:20:00,67.6,67.0,28.79,ESE,108,0.0,0.0,98,0.00,FEW,,0.00,0.0,WeatherDisplay:10.37,2013-08-19 13:20:00,
2013-08-19 08:30:00,68.4,66.6,28.79,ESE,108,0.0,2.0,94,0.00,FEW,,0.00,0.0,WeatherDisplay:10.37,2013-08-19 13:30:00,
2013-08-19 08:40:00,68.9,66.5,28.79,ESE,108,0.0,1.0,92,0.00,FEW,,0.00,0.0,WeatherDisplay:10.37,2013-08-19 13:40:00,
2013-08-19 08:50:00,69.6,66.5,28.80,ESE,108,0.0,1.0,90,0.00,FEW,,0.00,0.0,WeatherDisplay:10.37,2013-08-19 13:50:00,
2013-08-19 09:00:00,70.6,67.5,28.80,ESE,108,0.0,1.0,90,0.00,FEW,,0.00,0.0,WeatherDisplay:10.37,2013-08-19 14:00:00,
2013-08-19 09:10:00,72.1,68.4,28.80,ESE,108,0.0,1.0,88,0.00,FEW,,0.00,0.0,WeatherDisplay:10.37,2013-08-19 14:10:00,
2013-08-19 09:20:00,73.6,68.1,28.80,ESE,108,0.0,2.0,83,0.00,FEW,,0.00,0.0,WeatherDisplay:10.37,2013-08-19 14:20:00,
2013-08-19 09:30:00,73.8,68.3,28.80,ESE,108,0.0,3.0,83,0.00,FEW,,0.00,0.0,WeatherDisplay:10.37,2013-08-19 14:30:00,
2013-08-19 09:40:00,73.8,68.3,28.80,South,169,2.0,5.0,83,0.00,FEW,,0.00,0.0,WeatherDisplay:10.37,2013-08-19 14:40:00,
2013-08-19 09:50:00,74.2,68.7,28.80,SSE,164,2.0,7.0,83,0.00,FEW,,0.00,0.0,WeatherDisplay:10.37,2013-08-19 14:50:00,
2013-08-19 10:00:00,74.7,68.8,28.80,SE,146,1.0,8.0,82,0.00,FEW,,0.00,0.0,WeatherDisplay:10.37,2013-08-19 15:00:00,
2013-08-19 10:10:00,75.3,68.7,28.81,SSE,147,1.0,6.0,80,0.00,FEW,,0.00,0.0,WeatherDisplay:10.37,2013-08-19 15:10:00,
2013-08-19 10:20:00,75.7,68.7,28.81,SSE,156,0.0,7.0,79,0.00,FEW,,0.00,0.0,WeatherDisplay:10.37,2013-08-19 15:20:00,
2013-08-19 10:30:00,75.8,68.1,28.80,South,189,1.0,6.0,77,0.00,FEW,,0.00,0.0,WeatherDisplay:10.37,2013-08-19 15:30:00,
2013-08-19 10:40:00,76.0,68.6,28.80,SSE,168,1.0,7.0,78,0.00,FEW,,0.00,0.0,WeatherDisplay:10.37,2013-08-19 15:40:00,
2013-08-19 10:50:00,76.1,68.4,28.80,South,169,1.0,9.0,77,0.00,FEW,,0.00,0.0,WeatherDisplay:10.37,2013-08-19 15:50:00,
2013-08-19 11:00:00,76.4,68.3,28.80,South,171,2.0,6.0,76,0.00,FEW,,0.00,0.0,WeatherDisplay:10.37,2013-08-19 16:00:00,
2013-08-19 11:10:00,76.1,68.4,28.80,South,170,0.0,5.0,77,0.00,FEW,,0.00,0.0,WeatherDisplay:10.37,2013-08-19 16:10:00,
2013-08-19 11:20:00,77.0,68.5,28.80,SSE,159,2.0,6.0,75,0.00,FEW,,0.00,0.0,WeatherDisplay:10.37,2013-08-19 16:20:00,
2013-08-19 11:30:00,77.6,69.0,28.80,SSE,149,0.0,4.0,75,0.00,FEW,,0.00,0.0,WeatherDisplay:10.37,2013-08-19 16:30:00,
2013-08-19 11:40:00,77.8,68.0,28.80,SW,229,1.0,6.0,72,0.00,FEW,,0.00,0.0,WeatherDisplay:10.37,2013-08-19 16:40:00,
2013-08-19 11:50:00,78.2,67.2,28.80,South,182,0.0,7.0,69,0.00,FEW,,0.00,0.0,WeatherDisplay:10.37,2013-08-19 16:50:00,
2013-08-19 12:00:00,78.5,66.6,28.80,SSE,160,0.0,10.0,67,0.00,FEW,,0.00,0.0,WeatherDisplay:10.37,2013-08-19 17:00:00,
2013-08-19 12:10:00,78.8,66.9,28.79,SE,145,3.0,7.0,67,0.00,FEW,,0.00,0.0,WeatherDisplay:10.37,2013-08-19 17:10:00,
2013-08-19 12:20:00,78.9,66.5,28.79,SE,137,0.0,4.0,66,0.00,FEW,,0.00,0.0,WeatherDisplay:10.37,2013-08-19 17:20:00,
2013-08-19 12:30:00,79.1,67.6,28.79,SSE,147,0.0,5.0,68,0.00,FEW,,0.00,0.0,WeatherDisplay:10.37,2013-08-19 17:30:00,
2013-08-19 12:40:00,79.4,68.8,28.79,South,176,1.0,6.0,70,0.00,FEW,,0.00,0.0,WeatherDisplay:10.37,2013-08-19 17:40:00,
2013-08-19 12:50:00,79.3,67.3,28.78,SSE,165,0.0,7.0,67,0.00,FEW,,0.00,0.0,WeatherDisplay:10.37,2013-08-19 17:50:00,
2013-08-19 13:00:00,79.2,67.3,28.78,SSE,162,5.0,7.0,67,0.00,FEW,,0.00,0.0,WeatherDisplay:10.37,2013-08-19 18:00:00,
2013-08-19 13:10:00,79.2,68.1,28.78,SSE,157,0.0,6.0,69,0.00,FEW,,0.00,0.0,WeatherDisplay:10.37,2013-08-19 18:10:00,
2013-08-19 13:20:00,79.1,66.8,28.78,SSE,157,0.0,5.0,66,0.00,FEW,,0.00,0.0,WeatherDisplay:10.37,2013-08-19 18:20:00,
2013-08-19 13:30:00,79.9,67.5,28.78,SSE,160,0.0,6.0,66,0.00,FEW,,0.00,0.0,WeatherDisplay:10.37,2013-08-19 18:30:00,
2013-08-19 13:40:00,79.8,67.9,28.78,SSE,161,0.0,3.0,67,0.00,FEW,,0.00,0.0,WeatherDisplay:10.37,2013-08-19 18:40:00,
2013-08-19 13:50:00,80.0,68.1,28.77,SSE,161,0.0,2.0,67,0.00,FEW,,0.00,0.0,WeatherDisplay:10.37,2013-08-19 18:50:00,
2013-08-19 14:00:00,80.9,68.9,28.77,SSE,161,0.0,4.0,67,0.00,FEW,,0.00,0.0,WeatherDisplay:10.37,2013-08-19 19:00:00,
2013-08-19 14:10:00,82.4,68.1,28.76,SSE,159,0.0,2.0,62,0.00,FEW,,0.00,0.0,WeatherDisplay:10.37,2013-08-19 19:10:00,
2013-08-19 14:20:00,82.1,67.4,28.76,SSE,163,3.0,6.0,61,0.01,RA,,0.01,0.0,WeatherDisplay:10.37,2013-08-19 19:20:00,
2013-08-19 14:30:00,81.9,67.1,28.76,SSE,163,1.0,7.0,61,0.01,FEW,,0.01,0.0,WeatherDisplay:10.37,2013-08-19 19:30:00,
2013-08-19 14:40:00,82.4,67.6,28.76,SSE,163,1.0,4.0,61,0.01,FEW,,0.01,0.0,WeatherDisplay:10.37,2013-08-19 19:40:00,
2013-08-19 14:50:00,82.2,66.5,28.75,SSE,163,0.0,4.0,59,0.01,FEW,,0.01,0.0,WeatherDisplay:10.37,2013-08-19 19:50:00,
2013-08-19 15:00:00,82.4,68.5,28.75,SSE,160,0.0,4.0,63,0.01,FEW,,0.01,0.0,WeatherDisplay:10.37,2013-08-19 20:00:00,
2013-08-19 15:10:00,83.0,67.7,28.74,SSE,158,1.0,4.0,60,0.01,FEW,,0.01,0.0,WeatherDisplay:10.37,2013-08-19 20:10:00,
2013-08-19 15:20:00,83.5,68.6,28.74,SSE,150,0.0,3.0,61,0.00,FEW,,0.01,0.0,WeatherDisplay:10.37,2013-08-19 20:20:00,
2013-08-19 15:30:00,83.8,67.4,28.74,SSE,149,1.0,4.0,58,0.00,FEW,,0.01,0.0,WeatherDisplay:10.37,2013-08-19 20:30:00,
2013-08-19 15:40:00,84.3,67.4,28.74,SE,145,2.0,5.0,57,0.00,FEW,,0.01,0.0,WeatherDisplay:10.37,2013-08-19 20:40:00,
2013-08-19 15:50:00,84.1,66.2,28.73,SE,139,0.0,5.0,55,0.00,FEW,,0.01,0.0,WeatherDisplay:10.37,2013-08-19 20:50:00,
2013-08-19 16:00:00,85.1,68.6,28.73,SE,139,0.0,0.0,58,0.00,FEW,,0.01,0.0,WeatherDisplay:10.37,2013-08-19 21:00:00,
2013-08-19 16:10:00,84.5,66.5,28.73,SE,139,1.0,4.0,55,0.00,FEW,,0.01,0.0,WeatherDisplay:10.37,2013-08-19 21:10:00,
2013-08-19 16:20:00,84.0,66.6,28.72,SE,139,0.0,3.0,56,0.00,FEW,,0.01,0.0,WeatherDisplay:10.37,2013-08-19 21:20:00,
2013-08-19 16:30:00,83.0,67.2,28.72,SE,140,0.0,4.0,59,0.00,FEW,,0.01,0.0,WeatherDisplay:10.37,2013-08-19 21:30:00,
2013-08-19 16:40:00,82.7,66.4,28.72,SE,140,0.0,1.0,58,0.00,FEW,,0.01,0.0,WeatherDisplay:10.37,2013-08-19 21:40:00,
2013-08-19 16:50:00,82.0,66.7,28.72,SE,140,0.0,3.0,60,0.00,FEW,,0.01,0.0,WeatherDisplay:10.37,2013-08-19 21:50:00,
2013-08-19 17:00:00,81.7,66.9,28.72,SE,140,0.0,1.0,61,0.00,FEW,,0.01,0.0,WeatherDisplay:10.37,2013-08-19 22:00:00,
2013-08-19 17:10:00,81.5,66.3,28.72,SE,140,0.0,1.0,60,0.00,FEW,,0.01,0.0,WeatherDisplay:10.37,2013-08-19 22:10:00,
2013-08-19 17:20:00,82.4,65.1,28.71,SE,140,0.0,4.0,56,0.00,FEW,,0.01,0.0,WeatherDisplay:10.37,2013-08-19 22:20:00,
2013-08-19 17:30:00,83.0,67.2,28.71,SE,140,0.0,3.0,59,0.00,FEW,,0.01,0.0,WeatherDisplay:10.37,2013-08-19 22:30:00,
2013-08-19 17:40:00,83.0,64.6,28.71,South,187,0.0,6.0,54,0.00,FEW,,0.01,0.0,WeatherDisplay:10.37,2013-08-19 22:40:00,
2013-08-19 17:50:00,82.8,65.5,28.71,West,260,0.0,4.0,56,0.00,FEW,,0.01,0.0,WeatherDisplay:10.37,2013-08-19 22:50:00,
2013-08-19 18:00:00,83.2,67.4,28.71,SW,218,0.0,5.0,59,0.00,FEW,,0.01,0.0,WeatherDisplay:10.37,2013-08-19 23:00:00,
2013-08-19 18:10:00,83.2,67.4,28.71,SW,217,0.0,3.0,59,0.00,FEW,,0.01,0.0,WeatherDisplay:10.37,2013-08-19 23:10:00,
2013-08-19 18:20:00,82.8,67.9,28.70,SE,139,1.0,6.0,61,0.00,FEW,,0.01,0.0,WeatherDisplay:10.37,2013-08-19 23:20:00,
2013-08-19 18:30:00,82.0,67.7,28.70,SSE,150,0.0,7.0,62,0.00,FEW,,0.01,0.0,WeatherDisplay:10.37,2013-08-19 23:30:00,
2013-08-19 18:40:00,81.6,67.3,28.70,SSE,148,0.0,4.0,62,0.00,FEW,,0.01,0.0,WeatherDisplay:10.37,2013-08-19 23:40:00,
2013-08-19 18:50:00,81.5,67.7,28.70,SSE,148,0.0,5.0,63,0.00,FEW,,0.01,0.0,WeatherDisplay:10.37,2013-08-19 23:50:00,
2013-08-19 19:00:00,81.1,67.7,28.70,SSE,148,1.0,6.0,64,0.00,FEW,,0.01,0.0,WeatherDisplay:10.37,2013-08-20 00:00:00,
2013-08-19 19:10:00,80.4,68.0,28.70,SSE,148,0.0,1.0,66,0.00,FEW,,0.01,0.0,WeatherDisplay:10.37,2013-08-20 00:10:00,
2013-08-19 19:20:00,80.0,68.0,28.70,SSE,148,0.0,3.0,67,0.00,FEW,,0.01,0.0,WeatherDisplay:10.37,2013-08-20 00:20:00,
2013-08-19 19:30:00,79.5,68.0,28.70,SSE,148,0.0,1.0,68,0.00,FEW,,0.01,0.0,WeatherDisplay:10.37,2013-08-20 00:30:00,
2013-08-19 19:40:00,79.2,68.5,28.70,SSE,148,0.0,0.0,70,0.00,FEW,,0.01,0.0,WeatherDisplay:10.37,2013-08-20 00:40:00,
2013-08-19 19:50:00,78.3,69.0,28.70,SSE,148,0.0,0.0,73,0.00,FEW,,0.01,0.0,WeatherDisplay:10.37,2013-08-20 00:50:00,
2013-08-19 20:00:00,77.2,68.3,28.70,SSE,148,0.0,0.0,74,0.00,FEW,,0.01,0.0,WeatherDisplay:10.37,2013-08-20 01:00:00,
2013-08-19 20:10:00,76.2,68.0,28.70,SSE,148,0.0,0.0,76,0.00,FEW,,0.01,0.0,WeatherDisplay:10.37,2013-08-20 01:10:00,
2013-08-19 20:20:00,75.0,67.7,28.70,SSE,148,0.0,0.0,78,0.00,FEW,,0.01,0.0,WeatherDisplay:10.37,2013-08-20 01:20:00,
2013-08-19 20:30:00,74.0,67.5,28.70,SSE,148,0.0,0.0,80,0.00,FEW,,0.01,0.0,WeatherDisplay:10.37,2013-08-20 01:30:00,
2013-08-19 20:40:00,72.9,67.1,28.71,SSE,148,0.0,0.0,82,0.00,FEW,,0.01,0.0,WeatherDisplay:10.37,2013-08-20 01:40:00,
2013-08-19 20:50:00,72.1,66.7,28.71,SSE,148,0.0,0.0,83,0.00,FEW,,0.01,0.0,WeatherDisplay:10.37,2013-08-20 01:50:00,
2013-08-19 21:00:00,71.4,66.6,28.71,SSE,148,0.0,0.0,85,0.00,FEW,,0.01,0.0,WeatherDisplay:10.37,2013-08-20 02:00:00,
2013-08-19 21:10:00,70.8,66.4,28.72,SSE,148,0.0,0.0,86,0.00,FEW,,0.01,0.0,WeatherDisplay:10.37,2013-08-20 02:10:00,
2013-08-19 21:20:00,70.7,66.6,28.72,SSE,148,0.0,0.0,87,0.00,FEW,,0.01,0.0,WeatherDisplay:10.37,2013-08-20 02:20:00,
2013-08-19 21:30:00,70.6,66.2,28.72,SSE,148,0.0,0.0,86,0.00,FEW,,0.01,0.0,WeatherDisplay:10.37,2013-08-20 02:30:00,
2013-08-19 21:40:00,70.4,66.3,28.73,SSE,148,0.0,0.0,87,0.00,FEW,,0.01,0.0,WeatherDisplay:10.37,2013-08-20 02:40:00,
2013-08-19 21:50:00,70.2,66.5,28.73,SSE,148,0.0,0.0,88,0.00,FEW,,0.01,0.0,WeatherDisplay:10.37,2013-08-20 02:50:00,
2013-08-19 22:10:00,69.6,66.2,28.73,SSE,148,0.0,0.0,89,0.00,FEW,,0.01,0.0,WeatherDisplay:10.37,2013-08-20 03:10:00,
2013-08-19 22:20:00,69.3,65.9,28.74,SSE,148,0.0,0.0,89,0.00,FEW,,0.01,0.0,WeatherDisplay:10.37,2013-08-20 03:20:00,
2013-08-19 22:30:00,69.0,65.9,28.74,SSE,148,0.0,0.0,90,0.00,FEW,,0.01,0.0,WeatherDisplay:10.37,2013-08-20 03:30:00,
2013-08-19 22:40:00,68.8,66.1,28.74,SSE,148,0.0,0.0,91,0.00,FEW,,0.01,0.0,WeatherDisplay:10.37,2013-08-20 03:40:00,
2013-08-19 22:50:00,68.7,66.0,28.74,SSE,148,0.0,0.0,91,0.00,FEW,,0.01,0.0,WeatherDisplay:10.37,2013-08-20 03:50:00,
2013-08-19 23:00:00,68.7,66.0,28.74,SSE,148,0.0,0.0,91,0.00,FEW,,0.01,0.0,WeatherDisplay:10.37,2013-08-20 04:00:00,
2013-08-19 23:10:00,68.6,66.2,28.75,SSE,148,0.0,0.0,92,0.00,FEW,,0.01,0.0,WeatherDisplay:10.37,2013-08-20 04:10:00,
2013-08-19 23:20:00,68.5,65.8,28.74,SSE,148,0.0,0.0,91,0.00,FEW,,0.01,0.0,WeatherDisplay:10.37,2013-08-20 04:20:00,
2013-08-19 23:30:00,68.3,65.6,28.75,SSE,148,0.0,0.0,91,0.00,FEW,,0.01,0.0,WeatherDisplay:10.37,2013-08-20 04:30:00,
2013-08-19 23:40:00,68.2,65.8,28.75,SSE,148,0.0,0.0,92,0.00,FEW,,0.01,0.0,WeatherDisplay:10.37,2013-08-20 04:40:00,
2013-08-19 23:50:00,68.0,65.6,28.74,SSE,148,0.0,0.0,92,0.00,FEW,,0.01,0.0,WeatherDisplay:10.37,2013-08-20 04:50:00,